[[{"header":{"parameterUnit":"m.s-1","parameterCategory":2,"la1":30.2992,"la2":30.254,"lo1":-89.0895,"lo2":-89.0443,"dy":0.0025,"dx":0.0025,"nx":19,"ny":19,"refTime":"2026-05-14T03:00:00:Z","depth":"0","parameterNumber":2,"parameterNumberName":"U-component_of_CURRENTS"},"data":[0,0,0,-0.156,-0.1561,-0.164,-0.164,-0.1687,-0.1687,0,0,0,0,0,0,0,0,0,0,0,-0.1533,-0.1533,-0.156,-0.1561,-0.164,-0.164,-0.1687,-0.1687,0,0,0,0,0,0,0,0,0,0,0,-0.1533,-0.1533,-0.1533,-0.1562,-0.1639,-0.164,-0.1687,-0.1645,0,0,0,0,0,0,0,0,0,0,-0.1578,-0.1559,-0.1533,-0.1533,-0.1562,-0.1639,-0.164,-0.1644,-0.1648,-0.163,0,-0.1632,0,-0.1651,-0.1687,-0.1687,0,0,0,-0.1579,-0.1556,-0.1568,-0.1533,-0.1562,-0.1639,-0.1609,-0.1647,-0.1651,-0.1635,-0.1633,-0.1636,-0.1652,-0.1687,-0.1687,-0.1764,-0.1765,0,0,-0.1575,-0.1559,-0.1565,-0.157,-0.1568,-0.1607,-0.1611,-0.165,-0.1652,-0.1634,-0.1637,-0.1652,-0.1687,-0.1687,-0.1763,-0.1764,0,0,0,-0.155,-0.1556,-0.1568,-0.1568,-0.1581,-0.1608,-0.1614,-0.1651,-0.1652,-0.1638,-0.1653,-0.1687,-0.1687,-0.1763,-0.1764,-0.1781,0,0,0,-0.1549,-0.154,-0.1566,-0.1559,-0.158,-0.1625,-0.1614,-0.165,-0.1655,-0.1653,-0.1687,-0.1687,-0.1762,-0.1763,-0.1779,-0.1795,0,0,0,-0.1532,-0.1539,-0.1542,-0.1558,-0.1583,-0.1625,-0.1631,-0.1652,-0.1662,-0.1687,-0.1687,-0.1761,-0.1763,-0.1777,-0.1791,-0.1852,0,0,0,-0.1523,-0.1536,-0.1541,-0.1558,-0.1582,-0.1642,-0.1631,-0.1682,-0.1708,-0.1687,-0.1762,-0.1764,-0.1776,-0.1789,-0.1849,-0.1719,-0.1722,0,0,-0.1537,-0.1537,-0.1547,-0.1553,-0.1594,-0.1633,-0.1702,-0.1727,-0.1732,-0.1746,-0.1748,-0.178,-0.1791,-0.1852,-0.1832,-0.1831,0,0,0,-0.1551,-0.1558,-0.1573,-0.1591,-0.1631,-0.1693,-0.1729,-0.1761,-0.1805,-0.1752,-0.1815,-0.1822,-0.1859,-0.1776,-0.1776,-0.1682,-0.1773,-0.1773,-0.1772,-0.1542,-0.156,-0.1591,-0.1624,-0.1661,-0.1741,-0.1806,-0.1857,-0.1836,-0.1874,-0.1862,-0.1956,-0.1867,-0.1866,-0.1771,-0.1887,-0.1888,-0.1888,-0.1888,-0.1557,-0.1568,-0.1605,-0.1643,-0.1697,-0.1749,-0.1855,-0.1881,-0.1969,-0.193,-0.1965,-0.183,-0.1866,-0.1766,-0.1889,-0.1889,-0.1889,-0.1889,-0.1889,-0.1535,-0.1549,-0.1573,-0.162,-0.1686,-0.1757,-0.186,-0.1933,-0.1984,-0.2032,-0.1952,-0.1949,-0.184,-0.2044,-0.2044,-0.2045,-0.2045,-0.2045,-0.2045,-0.1491,-0.1524,-0.1546,-0.1608,-0.164,-0.1723,-0.1868,-0.1941,-0.1983,-0.1981,-0.198,-0.1858,-0.2004,-0.1974,-0.2051,-0.205,-0.2049,-0.2049,-0.2048,-0.1467,-0.1466,-0.1491,-0.1525,-0.1625,-0.1674,-0.183,-0.1902,-0.1989,-0.1973,-0.1808,-0.1965,-0.1953,-0.1951,-0.1921,-0.198,-0.198,-0.198,-0.198,-0.1434,-0.1442,-0.1449,-0.1484,-0.1567,-0.1655,-0.1703,-0.1754,-0.1742,-0.1684,-0.1731,-0.1632,-0.1639,-0.1606,-0.1611,-0.1573,-0.1543,-0.1543,-0.1542,-0.1423,-0.1417,-0.1409,-0.1434,-0.152,-0.1608,-0.1576,-0.1525,-0.1496,-0.1522,-0.1634,-0.1653,-0.1506,-0.1524,-0.1468,-0.1484,-0.142,0,0]},{"header":{"parameterUnit":"m.s-1","parameterCategory":2,"la1":30.2992,"la2":30.254,"lo1":-89.0895,"lo2":-89.0443,"dy":0.0025,"dx":0.0025,"nx":19,"ny":19,"refTime":"2026-05-14T03:00:00:Z","depth":"0","parameterNumber":3,"parameterNumberName":"V-component_of_CURRENTS"},"data":[0,0,0,-0.032,-0.0321,-0.0352,-0.0352,-0.0284,-0.0283,0,0,0,0,0,0,0,0,0,0,0,-0.0306,-0.0306,-0.032,-0.0321,-0.0352,-0.0352,-0.0284,-0.0283,0,0,0,0,0,0,0,0,0,0,0,-0.0306,-0.0306,-0.0307,-0.0321,-0.0352,-0.0352,-0.0284,-0.0286,0,0,0,0,0,0,0,0,0,0,-0.0268,-0.0271,-0.0306,-0.0307,-0.0321,-0.0352,-0.0352,-0.0287,-0.0286,-0.0241,0,-0.0253,0,-0.0268,-0.0277,-0.0277,0,0,0,-0.0313,-0.0273,-0.0285,-0.0307,-0.0322,-0.0352,-0.0336,-0.0287,-0.0285,-0.0239,-0.0253,-0.0251,-0.0267,-0.0276,-0.0276,-0.0171,-0.017,0,0,-0.0311,-0.0303,-0.0287,-0.0285,-0.0336,-0.0335,-0.0337,-0.0287,-0.0283,-0.0253,-0.025,-0.0266,-0.0276,-0.0275,-0.0171,-0.017,0,0,0,-0.0311,-0.0302,-0.0317,-0.0286,-0.0302,-0.0336,-0.0338,-0.0285,-0.0292,-0.025,-0.0265,-0.0275,-0.0274,-0.0171,-0.0171,-0.0218,0,0,0,-0.031,-0.0303,-0.0317,-0.0311,-0.0304,-0.0308,-0.0337,-0.0296,-0.0291,-0.0266,-0.0275,-0.0273,-0.0172,-0.0171,-0.0218,-0.0251,0,0,0,-0.0303,-0.0302,-0.0309,-0.0311,-0.0329,-0.031,-0.0315,-0.0296,-0.03,-0.0276,-0.0273,-0.0172,-0.0171,-0.0218,-0.0249,-0.0272,0,0,0,-0.0288,-0.0309,-0.0309,-0.0325,-0.0329,-0.0339,-0.0315,-0.0311,-0.0295,-0.0275,-0.0172,-0.0171,-0.0218,-0.0249,-0.0271,-0.0383,-0.0397,0,0,-0.0308,-0.0311,-0.0319,-0.032,-0.0334,-0.0334,-0.033,-0.0299,-0.0257,-0.018,-0.0179,-0.0218,-0.0249,-0.0272,-0.0322,-0.0338,0,0,0,-0.032,-0.0333,-0.0332,-0.0341,-0.034,-0.0339,-0.0318,-0.0292,-0.0235,-0.0244,-0.0183,-0.0201,-0.0214,-0.0278,-0.029,-0.0109,-0.0166,-0.0166,-0.0166,-0.034,-0.0341,-0.0358,-0.0359,-0.0356,-0.0337,-0.0324,-0.0276,-0.0236,-0.0207,-0.0213,-0.0227,-0.0294,-0.0304,-0.0115,-0.0175,-0.0176,-0.0176,-0.0176,-0.0368,-0.0382,-0.0379,-0.0397,-0.0383,-0.0374,-0.0324,-0.0297,-0.0253,-0.0212,-0.0223,-0.0292,-0.0321,-0.0113,-0.0178,-0.0178,-0.0178,-0.0177,-0.0177,-0.0381,-0.0393,-0.04,-0.0422,-0.0431,-0.041,-0.0423,-0.0365,-0.0299,-0.0303,-0.0366,-0.0366,-0.0209,-0.0309,-0.0309,-0.0309,-0.0309,-0.0309,-0.031,-0.0388,-0.0401,-0.0438,-0.0458,-0.0485,-0.0505,-0.048,-0.0478,-0.0465,-0.0428,-0.0428,-0.0186,-0.0268,-0.0292,-0.0313,-0.0312,-0.0312,-0.0312,-0.0311,-0.0406,-0.0421,-0.0475,-0.0512,-0.0583,-0.0654,-0.0627,-0.0669,-0.0641,-0.0662,-0.0349,-0.049,-0.049,-0.048,-0.0508,-0.0584,-0.0584,-0.0584,-0.0584,-0.0424,-0.0434,-0.0522,-0.0596,-0.0677,-0.0726,-0.085,-0.0867,-0.0655,-0.0508,-0.0352,-0.0312,-0.0309,-0.0292,-0.0287,-0.0307,-0.033,-0.0329,-0.0328,-0.0437,-0.0464,-0.0537,-0.0622,-0.0724,-0.0824,-0.0968,-0.0995,-0.0623,-0.029,-0.007,-0.0081,0.0013,0.0002,0.0055,0.0048,0.0024,0,0]}],[{"header":{"parameterUnit":"m.s-1","parameterCategory":2,"la1":30.2992,"la2":30.254,"lo1":-89.0895,"lo2":-89.0443,"dy":0.0025,"dx":0.0025,"nx":19,"ny":19,"refTime":"2026-05-14T03:00:00:Z","depth":"2","parameterNumber":2,"parameterNumberName":"U-component_of_CURRENTS"},"data":[0,0,0,-0.079,-0.0793,-0.0835,-0.0834,-0.0865,-0.0866,0,0,0,0,0,0,0,0,0,0,0,-0.0718,-0.0718,-0.079,-0.0793,-0.0835,-0.0834,-0.0865,-0.0866,0,0,0,0,0,0,0,0,0,0,0,-0.0717,-0.0718,-0.0719,-0.0794,-0.0835,-0.0834,-0.0864,-0.0822,0,0,0,0,0,0,0,0,0,0,-0.0777,-0.0732,-0.0718,-0.0719,-0.0795,-0.0836,-0.0834,-0.0819,-0.0825,-0.0861,0,-0.0874,0,-0.0929,-0.0874,-0.0874,0,0,0,-0.0724,-0.0728,-0.0771,-0.0719,-0.0796,-0.0836,-0.0797,-0.0822,-0.0828,-0.0868,-0.0876,-0.0879,-0.093,-0.0874,-0.0875,-0.103,-0.1031,0,0,-0.0722,-0.0695,-0.0766,-0.0775,-0.0819,-0.0796,-0.0799,-0.0825,-0.0818,-0.0876,-0.0881,-0.0931,-0.0875,-0.0876,-0.103,-0.1031,0,0,0,-0.0762,-0.0693,-0.0732,-0.0771,-0.0814,-0.0799,-0.0802,-0.0814,-0.0837,-0.0882,-0.0931,-0.0876,-0.0877,-0.1029,-0.103,-0.1081,0,0,0,-0.0757,-0.0723,-0.0731,-0.071,-0.0814,-0.0822,-0.0791,-0.0832,-0.084,-0.0931,-0.0876,-0.0878,-0.1028,-0.1029,-0.1078,-0.1078,0,0,0,-0.0714,-0.0719,-0.0732,-0.071,-0.077,-0.0823,-0.0842,-0.0833,-0.0874,-0.0874,-0.0879,-0.1027,-0.1029,-0.1075,-0.1074,-0.1041,0,0,0,-0.067,-0.0718,-0.073,-0.0803,-0.0771,-0.0848,-0.0842,-0.0878,-0.088,-0.0876,-0.1028,-0.103,-0.1074,-0.1071,-0.1039,-0.1119,-0.1132,0,0,-0.0718,-0.0722,-0.0772,-0.0789,-0.0885,-0.0837,-0.0919,-0.0919,-0.0924,-0.1004,-0.1007,-0.1079,-0.1073,-0.104,-0.1232,-0.1241,0,0,0,-0.0782,-0.0767,-0.0803,-0.0865,-0.0946,-0.099,-0.0983,-0.098,-0.1027,-0.0954,-0.1105,-0.1099,-0.1076,-0.1123,-0.1131,-0.1039,-0.1039,-0.1039,-0.1038,-0.077,-0.0827,-0.088,-0.0934,-0.1007,-0.1084,-0.1083,-0.1087,-0.1091,-0.1126,-0.1161,-0.1198,-0.1254,-0.126,-0.1196,-0.1196,-0.1196,-0.1197,-0.1197,-0.0853,-0.0891,-0.0933,-0.1006,-0.1104,-0.1189,-0.1228,-0.1218,-0.1208,-0.1225,-0.12,-0.1202,-0.1271,-0.1201,-0.12,-0.12,-0.1199,-0.1199,-0.1199,-0.0872,-0.0888,-0.0942,-0.1074,-0.1181,-0.1278,-0.1252,-0.1277,-0.1264,-0.1244,-0.1269,-0.1269,-0.1177,-0.1243,-0.1243,-0.1243,-0.1243,-0.1243,-0.1243,-0.0933,-0.0959,-0.0979,-0.11,-0.1183,-0.1243,-0.1272,-0.1222,-0.1291,-0.1316,-0.1317,-0.1212,-0.121,-0.1179,-0.1241,-0.1242,-0.1242,-0.1242,-0.1242,-0.0934,-0.0942,-0.1004,-0.1055,-0.1146,-0.1131,-0.1159,-0.1184,-0.1199,-0.1268,-0.1333,-0.1331,-0.1302,-0.1297,-0.1269,-0.1349,-0.1349,-0.1349,-0.1349,-0.0924,-0.092,-0.0984,-0.1016,-0.1034,-0.1049,-0.0974,-0.1071,-0.1247,-0.1316,-0.1317,-0.1345,-0.1343,-0.1315,-0.131,-0.1281,-0.1364,-0.1363,-0.1363,-0.0917,-0.0947,-0.0954,-0.0943,-0.0993,-0.0873,-0.0862,-0.1022,-0.1241,-0.1353,-0.1215,-0.137,-0.1418,-0.1412,-0.1372,-0.1363,-0.1317,0,0]},{"header":{"parameterUnit":"m.s-1","parameterCategory":2,"la1":30.2992,"la2":30.254,"lo1":-89.0895,"lo2":-89.0443,"dy":0.0025,"dx":0.0025,"nx":19,"ny":19,"refTime":"2026-05-14T03:00:00:Z","depth":"2","parameterNumber":3,"parameterNumberName":"V-component_of_CURRENTS"},"data":[0,0,0,0.0062,0.006,0.0069,0.0069,0.0128,0.0128,0,0,0,0,0,0,0,0,0,0,0,0.007,0.0068,0.0062,0.006,0.0068,0.0069,0.0128,0.0128,0,0,0,0,0,0,0,0,0,0,0,0.007,0.0069,0.0067,0.006,0.0068,0.0069,0.0128,0.0124,0,0,0,0,0,0,0,0,0,0,0.0116,0.0104,0.0069,0.0067,0.006,0.0068,0.0069,0.0124,0.0124,0.0119,0,0.0082,0,0.0074,0.0127,0.0127,0,0,0,0.012,0.0104,0.0081,0.0067,0.0059,0.0068,0.0082,0.0124,0.0124,0.0119,0.0083,0.0084,0.0075,0.0127,0.0127,0.0127,0.0127,0,0,0.0119,0.0107,0.008,0.008,0.001,0.0081,0.0081,0.0124,0.0118,0.0083,0.0085,0.0076,0.0127,0.0127,0.0126,0.0127,0,0,0,0.0078,0.0106,0.0084,0.0078,0.0057,0.0079,0.008,0.0118,0.0101,0.0086,0.0077,0.0127,0.0127,0.0126,0.0126,0.0044,0,0,0,0.0081,0.0077,0.0083,0.0082,0.0055,0.0081,0.0072,0.01,0.0103,0.0076,0.0127,0.0127,0.0126,0.0126,0.0046,0.002,0,0,0,0.0078,0.0078,0.0058,0.008,0.0052,0.008,0.007,0.0102,0.0095,0.0127,0.0127,0.0126,0.0126,0.0048,0.0023,0.0059,0,0,0,0.0099,0.0029,0.0057,-0.0012,0.0051,0.0032,0.0071,0.0067,0.0087,0.0127,0.0126,0.0126,0.0049,0.0025,0.006,-0.0067,-0.0082,0,0,0.002,0.002,-0.0019,0.0004,-0.0044,0.0039,0.0018,0.0048,0.0095,0.0125,0.0126,0.0046,0.0023,0.0059,-0.0061,-0.0077,0,0,0,-0.0036,-0.0048,-0.0058,-0.0083,-0.0088,-0.006,-0.0016,0.0022,0.0063,0.0094,0.0071,0.0061,0.0085,0.0012,-0.0001,0.0127,0.0127,0.0127,0.0127,-0.0122,-0.012,-0.0164,-0.0152,-0.0161,-0.0127,-0.008,-0.0014,0.0011,0.0026,0.0011,0.0007,-0.0075,-0.0085,0.0029,0.0028,0.0028,0.0028,0.0028,-0.0211,-0.0237,-0.0221,-0.0255,-0.0244,-0.0251,-0.0162,-0.012,-0.0035,-0.002,0.0008,-0.0051,-0.0103,0.0022,0.0023,0.0024,0.0024,0.0025,0.0025,-0.0251,-0.0267,-0.028,-0.033,-0.0357,-0.0331,-0.0287,-0.0212,-0.0105,-0.0081,-0.0118,-0.0118,-0.0027,-0.0072,-0.0072,-0.0072,-0.0072,-0.0072,-0.0072,-0.031,-0.0321,-0.036,-0.0396,-0.0429,-0.0435,-0.0355,-0.0276,-0.023,-0.0198,-0.0198,-0.0025,-0.0022,-0.003,-0.0072,-0.0072,-0.0072,-0.0072,-0.0072,-0.0358,-0.0367,-0.043,-0.0466,-0.0523,-0.055,-0.0446,-0.0382,-0.0305,-0.0307,-0.0233,-0.0229,-0.0198,-0.019,-0.02,-0.0282,-0.0282,-0.0282,-0.0283,-0.0388,-0.0399,-0.0491,-0.0564,-0.06,-0.0606,-0.0579,-0.0481,-0.0386,-0.0321,-0.0318,-0.0346,-0.0339,-0.0314,-0.0302,-0.0313,-0.0425,-0.0424,-0.0424,-0.0418,-0.045,-0.0522,-0.0602,-0.0657,-0.0656,-0.0678,-0.0604,-0.0428,-0.0418,-0.0226,-0.0315,-0.0353,-0.0342,-0.0298,-0.0282,-0.0297,0,0]}],[{"header":{"parameterUnit":"m.s-1","parameterCategory":2,"la1":30.2992,"la2":30.254,"lo1":-89.0895,"lo2":-89.0443,"dy":0.0025,"dx":0.0025,"nx":19,"ny":19,"refTime":"2026-05-14T03:00:00:Z","depth":"4","parameterNumber":2,"parameterNumberName":"U-component_of_CURRENTS"},"data":[0,0,0,-0.0586,-0.0586,-0.0641,-0.0641,-0.088,-0.0883,0,0,0,0,0,0,0,0,0,0,0,-0.0569,-0.0569,-0.0586,-0.0586,-0.0641,-0.0642,-0.088,-0.0883,0,0,0,0,0,0,0,0,0,0,0,-0.0569,-0.0569,-0.0569,-0.0587,-0.0641,-0.0642,-0.0879,-0.0802,0,0,0,0,0,0,0,0,0,0,-0.073,-0.0687,-0.0569,-0.0569,-0.0587,-0.0641,-0.0642,-0.0797,-0.0807,-0.0897,0,-0.0887,0,-0.0884,-0.0901,-0.0901,0,0,0,-0.061,-0.0678,-0.0684,-0.0569,-0.0587,-0.0641,-0.0623,-0.0801,-0.0813,-0.0911,-0.089,-0.0898,-0.0888,-0.0902,-0.0904,-0.1174,-0.1175,0,0,-0.0607,-0.06,-0.0675,-0.069,-0.0582,-0.0621,-0.0624,-0.0807,-0.0821,-0.0891,-0.0902,-0.0892,-0.0904,-0.0906,-0.1173,-0.1174,0,0,0,-0.0582,-0.0597,-0.0596,-0.0682,-0.0674,-0.0622,-0.0626,-0.0813,-0.0808,-0.0905,-0.0895,-0.0906,-0.0909,-0.1172,-0.1174,-0.1144,0,0,0,-0.0582,-0.0581,-0.0594,-0.0594,-0.0669,-0.0722,-0.0628,-0.0796,-0.0816,-0.0894,-0.0906,-0.0911,-0.1171,-0.1173,-0.1142,-0.1108,0,0,0,-0.057,-0.0581,-0.0578,-0.0593,-0.0604,-0.0718,-0.0725,-0.0799,-0.081,-0.0902,-0.0912,-0.117,-0.1173,-0.1141,-0.1107,-0.103,0,0,0,-0.0576,-0.0573,-0.0577,-0.0582,-0.0603,-0.0637,-0.0723,-0.0799,-0.0873,-0.0907,-0.1171,-0.1173,-0.114,-0.1106,-0.1031,-0.0901,0,0,0,-0.0575,-0.0573,-0.0576,-0.058,-0.0588,-0.0632,-0.0691,-0.0838,-0.0947,-0.1125,-0.113,-0.1142,-0.1107,-0.103,-0.1042,0,0,0,0,-0.0578,-0.0575,-0.058,-0.0586,-0.0611,-0.0663,-0.0766,-0.0838,-0.1031,-0.0996,-0.1199,-0.1178,-0.1129,-0.1061,-0.1185,-0.1185,-0.1184,-0.1184,-0.1184,-0.0559,-0.057,-0.0573,-0.059,-0.0611,-0.0713,-0.078,-0.0919,-0.1023,-0.112,-0.1196,-0.1176,-0.1113,-0.1257,-0.1257,-0.1257,-0.1257,-0.1257,-0.1257,-0.0546,-0.0539,-0.0562,-0.057,-0.0619,-0.0682,-0.0853,-0.0956,-0.1084,-0.119,-0.1144,-0.1091,-0.1255,-0.1256,-0.1256,-0.1256,-0.1256,-0.1256,-0.1256,-0.0518,-0.0515,-0.0533,-0.0547,-0.0595,-0.0708,-0.0783,-0.0952,-0.1082,-0.1087,-0.1009,-0.1137,-0.1084,-0.1084,-0.1083,-0.1083,-0.1082,-0.1082,-0.1082,-0.0473,-0.0491,-0.0503,-0.0521,-0.0536,-0.0616,-0.0768,-0.0809,-0.0951,-0.0952,-0.1092,-0.1116,-0.1122,-0.1076,-0.1075,-0.1076,-0.1077,-0.1078,-0.1078,-0.0416,-0.0449,-0.0458,-0.0471,-0.0504,-0.0524,-0.0644,-0.0672,-0.0668,-0.0662,-0.0847,-0.086,-0.0837,-0.0848,-0.0791,-0.0705,-0.0704,-0.0702,0,-0.0379,-0.0396,-0.0417,-0.0433,-0.0449,-0.049,-0.0492,-0.0519,-0.0595,-0.0608,-0.0693,-0.0904,-0.0914,-0.0893,-0.09,-0.0836,0,0,0,-0.0341,-0.0361,-0.0358,-0.0401,-0.042,-0.0449,-0.0492,-0.0483,-0.0598,-0.0516,-0.0657,-0.0669,-0.0861,-0.1054,-0.1049,-0.1056,-0.098,0,0]},{"header":{"parameterUnit":"m.s-1","parameterCategory":2,"la1":30.2992,"la2":30.254,"lo1":-89.0895,"lo2":-89.0443,"dy":0.0025,"dx":0.0025,"nx":19,"ny":19,"refTime":"2026-05-14T03:00:00:Z","depth":"4","parameterNumber":3,"parameterNumberName":"V-component_of_CURRENTS"},"data":[0,0,0,-0.0236,-0.0237,-0.0276,-0.0276,-0.0234,-0.0234,0,0,0,0,0,0,0,0,0,0,0,-0.023,-0.023,-0.0236,-0.0237,-0.0276,-0.0276,-0.0234,-0.0234,0,0,0,0,0,0,0,0,0,0,0,-0.023,-0.023,-0.0231,-0.0237,-0.0276,-0.0276,-0.0235,-0.0229,0,0,0,0,0,0,0,0,0,0,-0.0203,-0.021,-0.023,-0.0231,-0.0238,-0.0276,-0.0276,-0.0229,-0.0229,-0.019,0,-0.0203,0,-0.021,-0.0228,-0.0228,0,0,0,-0.024,-0.021,-0.0218,-0.0231,-0.0238,-0.0276,-0.0259,-0.023,-0.0229,-0.0189,-0.0203,-0.0201,-0.021,-0.0228,-0.0228,-0.0112,-0.0112,0,0,-0.0238,-0.0235,-0.0219,-0.0218,-0.0255,-0.0258,-0.026,-0.0231,-0.0232,-0.0202,-0.0201,-0.0209,-0.0227,-0.0227,-0.0113,-0.0112,0,0,0,-0.023,-0.0234,-0.0244,-0.0219,-0.023,-0.0259,-0.0262,-0.0233,-0.0237,-0.02,-0.0208,-0.0227,-0.0226,-0.0114,-0.0113,-0.0171,0,0,0,-0.0229,-0.0229,-0.0244,-0.0242,-0.0231,-0.0244,-0.0265,-0.0239,-0.0236,-0.0209,-0.0227,-0.0225,-0.0115,-0.0113,-0.0172,-0.0236,0,0,0,-0.0227,-0.0228,-0.0235,-0.0242,-0.0256,-0.0245,-0.0248,-0.024,-0.024,-0.0228,-0.0225,-0.0115,-0.0114,-0.0172,-0.0234,-0.0237,0,0,0,-0.0219,-0.0246,-0.0235,-0.0267,-0.0256,-0.0305,-0.0248,-0.0271,-0.0269,-0.0227,-0.0115,-0.0113,-0.0172,-0.0233,-0.0236,-0.0183,0,0,0,-0.025,-0.0249,-0.0269,-0.0261,-0.0313,-0.03,-0.0359,-0.0323,-0.0217,-0.012,-0.0118,-0.0172,-0.0234,-0.0237,-0.0085,0,0,0,0,-0.0278,-0.0293,-0.0308,-0.0333,-0.0358,-0.0394,-0.0378,-0.0337,-0.0215,-0.0206,-0.0121,-0.0159,-0.0159,-0.0121,-0.0105,-0.0105,-0.0105,-0.0106,-0.0106,-0.0313,-0.0328,-0.037,-0.0398,-0.0431,-0.046,-0.0461,-0.0378,-0.0279,-0.0198,-0.0168,-0.0163,-0.0118,-0.0101,-0.0101,-0.0101,-0.0102,-0.0102,-0.0102,-0.036,-0.0385,-0.0413,-0.0456,-0.0494,-0.0542,-0.0504,-0.0437,-0.0307,-0.0202,-0.0197,-0.0137,-0.0106,-0.0105,-0.0105,-0.0104,-0.0104,-0.0104,-0.0103,-0.0377,-0.0393,-0.0418,-0.0479,-0.054,-0.0571,-0.0566,-0.0487,-0.0353,-0.0322,-0.0202,-0.0199,-0.0239,-0.0259,-0.0259,-0.026,-0.026,-0.026,-0.026,-0.0379,-0.0408,-0.0448,-0.0502,-0.0543,-0.0573,-0.0561,-0.0504,-0.0399,-0.0279,-0.0297,-0.0216,-0.0211,-0.0246,-0.0264,-0.0264,-0.0263,-0.0263,-0.0262,-0.0399,-0.0409,-0.0465,-0.0502,-0.0574,-0.0586,-0.0582,-0.0471,-0.04,-0.0311,-0.0254,-0.0253,-0.0233,-0.0228,-0.0264,-0.0289,-0.0288,-0.0288,0,-0.0405,-0.0416,-0.0493,-0.055,-0.0581,-0.0598,-0.0496,-0.0438,-0.0349,-0.0338,-0.04,-0.0344,-0.0339,-0.0323,-0.0317,-0.0362,0,0,0,-0.042,-0.0443,-0.0498,-0.0559,-0.0596,-0.0512,-0.047,-0.0416,-0.0364,-0.0278,-0.0273,-0.0277,-0.0283,-0.0277,-0.0245,-0.0239,-0.0294,0,0]}]]